Home > Weather > Nãgpur > Past weeks

Flag for India Weather for the Past 2 Weeks in Nãgpur, Maharashtra, India

Now
81 °F

Haze.


Feels Like: 79 °F
Forecast: 68 / 92 °F
Wind: No wind

Location: Nagpur Sonegaon

Current Time: Feb 12, 2016 at 8:16:42 PM

Latest Report: Feb 12, 2016 at 7:00 PM


Visibility: 2 mi

Pressure: 29.86 "Hg

Humidity: 24%

Dew point: 41 °F

Location of NãgpurLocation

Historic Weather in Nãgpur — Graph

°F

Nãgpur Temperature Yesterday

Maximum temperature yesterday: 93 °F (at 2:00 PM)
Minimum temperature yesterday: 72 °F (at 5:00 AM)
Average temperature yesterday: 81 °F

High & Low Weather Summary for the Past Weeks

 TemperatureHumidityPressure
High97 °F (Jan 31, 3:30 PM)100% (Feb 3, 7:30 AM)30.15 "Hg (Feb 3, 7:30 AM)
Low57 °F (Feb 6, 6:30 AM)17% (Feb 8, 3:00 PM)29.83 "Hg (Feb 11, 1:30 AM)
Average77 °F40%29.98 "Hg
* Reported Jan 28 6:30 PM — Feb 12 7:00 PM, Nãgpur, Weather by CustomWeather, © 2016

Note: Actual official high and low records may vary slightly from our data, if they occured in-between our weather recording intervals... More about our weather records

Advertising

Nãgpur Weather History for the Previous 24 Hours

 ConditionsComfort  
Time TempWeatherWind HumidityBarometerVisibility
7:00 PM
Fri, Feb 12
81 °FHaze.No wind24%29.86 "Hg2 mi
6:30 PM82 °FHaze.2 mph32%29.86 "Hg2 mi
6:00 PM84 °FHaze.2 mph31%29.86 "Hg3 mi
5:30 PM88 °FHaze.2 mph25%29.83 "Hg3 mi
5:00 PM88 °FHaze.2 mph25%29.83 "Hg3 mi
4:30 PM90 °FHaze.3 mph22%29.83 "Hg3 mi
4:00 PM90 °FHaze.5 mph22%29.83 "Hg3 mi
3:30 PM90 °FHaze.2 mph22%29.86 "Hg3 mi
3:00 PM90 °FHaze.3 mph21%29.86 "Hg3 mi
2:30 PM90 °FHaze.5 mph21%29.86 "Hg3 mi
2:00 PM90 °FHaze.6 mph21%29.86 "Hg3 mi
1:30 PM88 °FHaze.6 mph22%29.89 "Hg3 mi
12:30 PM88 °FHaze.6 mph22%29.92 "Hg2 mi
12:00 PM86 °FHaze.5 mph24%29.95 "Hg2 mi
11:30 AM84 °FHaze.6 mph25%29.95 "Hg2 mi
11:00 AM82 °FHaze.6 mph26%29.98 "Hg2 mi
10:30 AM81 °FHaze.5 mph28%29.98 "Hg2 mi
10:00 AM79 °FHaze.5 mph32%29.98 "Hg2 mi
9:30 AM77 °FHaze.3 mph36%29.98 "Hg2 mi
9:00 AM79 °FHaze.No wind28%29.89 "Hg2 mi
8:30 AM72 °FHaze.3 mph44%29.98 "Hg1 mi
7:30 AM64 °FHaze.No wind52%29.95 "Hg1 mi
6:00 AM63 °FMild.No wind56%29.92 "HgN/A
5:30 AM63 °FMild.No wind56%29.92 "HgN/A
5:00 AM63 °FMild.No wind52%29.89 "HgN/A
4:30 AM68 °FMild.1 mph46%29.89 "HgN/A
3:30 AM68 °FMild.1 mph43%29.89 "HgN/A
3:00 AM68 °FMild.No wind46%29.89 "HgN/A
2:30 AM66 °FHaze.No wind46%29.89 "Hg2 mi
2:00 AM68 °FHaze.No wind43%29.89 "Hg2 mi
1:30 AM70 °FHaze.No wind43%29.89 "Hg2 mi
1:00 AM72 °FHaze.No wind38%29.89 "Hg2 mi
12:30 AM72 °FHaze.No wind36%29.89 "Hg2 mi
12:00 AM73 °FHaze.2 mph33%29.92 "Hg2 mi
11:30 PM
Thu, Feb 11
77 °FHaze.2 mph22%29.92 "Hg2 mi
11:00 PM77 °FHaze.2 mph30%29.92 "Hg2 mi
10:30 PM79 °FHaze.2 mph28%29.92 "Hg2 mi
10:00 PM81 °FHaze.3 mph28%29.92 "Hg2 mi
9:30 PM81 °FHaze.7 mph28%29.92 "Hg2 mi
9:00 PM82 °FHaze.7 mph30%29.92 "Hg2 mi
8:30 PM77 °FHaze.5 mph30%29.89 "Hg2 mi
8:00 PM82 °FHaze.5 mph25%29.86 "Hg2 mi
Weather by CustomWeather, © 2016

See weather overviewHow to use our weather pages